Meteo Giornale » Osservazioni meteo Stati Uniti (USA) » Manokotak
ore: 13:56 - Osservazioni Meteo Manokotak
Lat. 58° 59' N Lon. 159° 3' W Alt. 16 metri s.l.m.
12 °C
Nuvoloso
Temp. 24 Ore
8 °C
12 °C
Nord
7.4 Km/h
Dew point 4 °C
Umidità 57 %
Visibilità 10 Km
Il sole sorge alle ore 07:32
Il sole tramonta alle ore 21:39
| Data e Ora | Cielo e Fenomeni | T °C | DP °C | Um. % | Pres. hPa | Vis. km | Vento km/h | |
|---|---|---|---|---|---|---|---|---|
| Oggi h: 13:56 | Nuvoloso | 12 | 4 | 57 | 1013 | 10 | N 7.4 | |
| Oggi h: 12:56 | Sereno | 11 | 4 | 61 | 1013 | 10 | E 9.3 | |
| Oggi h: 11:56 | Sereno | 9 | 3 | 66 | 1013 | 10 | N 5.5 | |
| Oggi h: 10:56 | Sereno | 9 | 4 | 70 | 1013 | 10 | E/NE 16.7 | |
| Oggi h: 09:56 | Sereno | 9 | 4 | 70 | 1013 | 10 | NE 9.3 | |
| Oggi h: 08:56 | Sereno | 8 | 3 | 70 | 1012 | 10 | N 0 | |
| Oggi h: 07:56 | Sereno | 8 | 2 | 65 | 1012 | 10 | NO 11.1 | |
| Oggi h: 06:56 | Sereno | 8 | 4 | 75 | 1012 | 10 | O/NO 13 | |
| Oggi h: 05:56 | Sereno | 8 | 5 | 81 | 1012 | 10 | N/NO 7.4 | |
| Oggi h: 04:56 | Sereno | 8 | 7 | 93 | 1013 | 10 | SO 9.3 | |
| Oggi h: 03:56 | Sereno | 9 | 8 | 93 | 1014 | 10 | O/SO 13 | |
| Oggi h: 02:56 | Sereno | 9 | 7 | 87 | 1014 | 10 | O/SO 13 | |
| Oggi h: 01:56 | Sereno | 9 | 7 | 87 | 1015 | 10 | O/SO 13 | |
| Oggi h: 00:56 | Sereno | 8 | 6 | 87 | 1014 | 10 | O/NO 20.3 | |
| Ieri h: 23:56 | Sereno | 9 | 7 | 87 | 1015 | 10 | N 7.4 | |
| Ieri h: 22:56 | Sereno | 8 | 7 | 93 | 1015 | 10 | O 7.4 | |
| Ieri h: 21:56 | Sereno | 9 | 7 | 87 | 1015 | 10 | O 16.7 | |
| Ieri h: 20:56 | Sereno | 11 | 8 | 81 | 1015 | 10 | O 24 | |
| Ieri h: 19:56 | Coperto | 11 | 8 | 81 | 1015 | 10 | O 18.5 | |
| Ieri h: 19:03 | Molto Nuvoloso | 11 | 8 | 81 | 1015 | 10 | O 22.2 | |
| Ieri h: 18:56 | Coperto | 11 | 8 | 81 | 1015 | 10 | O 24 | |
| Ieri h: 17:56 | Coperto | 11 | 8 | 81 | 1016 | 10 | O/SO 14.8 | |
| Ieri h: 17:23 | Coperto | 12 | 8 | 76 | 1016 | 10 | SO 20.3 | |
| Ieri h: 17:16 | Coperto | 12 | 9 | 81 | 1016 | 10 | O/SO 20.3 | |
| Ieri h: 16:56 | Coperto | 12 | 9 | 81 | 1016 | 10 | O/SO 22.2 | |
| Ieri h: 16:19 | Coperto | 11 | 8 | 81 | 1017 | 10 | O/SO 16.7 | |
| Ieri h: 15:56 | Coperto | 12 | 8 | 76 | 1017 | 10 | O/SO 22.2 | |
| Ieri h: 15:24 | Coperto | 11 | 8 | 81 | 1018 | 10 | O/SO 16.7 | |
| Ieri h: 14:56 | Coperto | 11 | 8 | 81 | 1018 | 10 | O/SO 16.7 | |



